Radford, VA

4:55 PM EST on February 21, 2017 (GMT -0500)
New River Valley

Weather History for KPSK - April, 2014

Change the Weather History Date:

Sunday, April 27, 2014

  Actual Average (KBCB) Record (KBCB)
Temperature  
Mean Temperature 62 °F -  
Max Temperature 80 °F 65 °F 85 °F (1994)
Min Temperature 45 °F 39 °F 25 °F (1974)
Degree Days  
Heating Degree Days 2    
Growing Degree Days 12 (Base 50)    
Moisture  
Dew Point 41 °F    
Average Humidity 45    
Maximum Humidity 81    
Minimum Humidity 21    
Precipitation  
Precipitation 0.00 in - - ()
Sea Level Pressure  
Sea Level Pressure 30.00 in    
Wind  
Wind Speed 5 mph (SW)    
Max Wind Speed 10 mph    
Max Gust Speed -    
Visibility 10 miles    
Events      
Averages and records for this station are not official NWS values.
T = Trace of Precipitation, MM = Missing Value Source: NWS Daily Summary

Daily Weather History Graph

Daily Weather History Graph

Search for Another Location

Airport or City:

Trip Planner

Search our weather history database for the weather conditions in past years. The results will help you decide how hot, cold, wet, or windy it might be!

Date:

Astronomy

Apr. 27, 2014 Rise Set
Actual Time 6:32 AM EDT 8:08 PM EDT
Civil Twilight 6:05 AM EDT 8:36 PM EDT
Nautical Twilight 5:31 AM EDT 9:09 PM EDT
Astronomical Twilight 4:56 AM EDT 9:44 PM EDT
Moon 5:29 AM EDT (4/27) 6:42 PM EDT (4/27)
Length of Visible Light 14h 30m
Length of Day
13h 35m
Waning Crescent, 3% of the Moon is Illuminated
Apr 27
Waning Crescent
Apr 29
New
May 6
First Quarter
May 14
Full
May 21
Last Quarter

Hourly Weather History & Observations

Time (EDT) Temp. Windchill Dew Point Humidity Pressure Visibility Wind Dir Wind Speed Gust Speed Precip Events Conditions
12:15 AM 59.2 °F - 37.6 °F 45% 29.98 in 10.0 mi West 5.8 mph - N/A   Clear
12:35 AM 59.0 °F - 37.6 °F 45% 29.98 in 10.0 mi WSW 6.9 mph - N/A   Clear
12:55 AM 57.6 °F - 37.8 °F 48% 29.98 in 10.0 mi WSW 6.9 mph - N/A   Clear
1:15 AM 57.0 °F - 37.8 °F 49% 29.98 in 10.0 mi WSW 6.9 mph - N/A   Clear
1:35 AM 54.1 °F - 39.0 °F 57% 29.99 in 10.0 mi SW 6.9 mph - N/A   Clear
2:15 AM 54.0 °F - 39.0 °F 57% 29.99 in 10.0 mi SW 8.1 mph - N/A   Clear
2:35 AM 53.6 °F - 39.2 °F 58% 29.98 in 10.0 mi SW 8.1 mph - N/A   Clear
2:55 AM 54.0 °F - 38.3 °F 55% 29.99 in 10.0 mi WSW 9.2 mph - N/A   Clear
3:15 AM 54.1 °F - 38.1 °F 55% 29.99 in 10.0 mi WSW 8.1 mph - N/A   Clear
3:35 AM 52.2 °F - 38.5 °F 60% 29.99 in 10.0 mi SW 8.1 mph - N/A   Clear
3:55 AM 51.4 °F - 39.9 °F 65% 30.00 in 10.0 mi SW 9.2 mph - N/A   Clear
4:15 AM 52.2 °F - 39.2 °F 61% 30.00 in 10.0 mi WSW 5.8 mph - N/A   Clear
4:35 AM 52.0 °F - 38.1 °F 59% 30.00 in 10.0 mi West 3.5 mph - N/A   Clear
4:55 AM 50.2 °F - 38.1 °F 63% 30.00 in 10.0 mi Calm Calm - N/A   Clear
5:15 AM 46.0 °F 43.9 °F 38.5 °F 75% 30.00 in 10.0 mi West 4.6 mph - N/A   Clear
5:35 AM 48.2 °F - 38.8 °F 70% 30.01 in 10.0 mi Calm Calm - N/A   Clear
5:55 AM 48.0 °F - 38.3 °F 69% 30.01 in 10.0 mi Calm Calm - N/A   Clear
6:15 AM 48.0 °F - 38.1 °F 69% 30.03 in 10.0 mi Calm Calm - N/A   Clear
6:35 AM 47.3 °F - 39.0 °F 73% 30.03 in 10.0 mi Calm Calm - N/A   Clear
6:55 AM 48.7 °F - 39.2 °F 70% 30.04 in 10.0 mi SSW 4.6 mph - N/A   Clear
7:15 AM 48.7 °F - 39.6 °F 71% 30.06 in 10.0 mi West 3.5 mph - N/A   Clear
7:35 AM 45.7 °F - 40.3 °F 81% 30.07 in 10.0 mi Calm Calm - N/A   Clear
7:55 AM 49.5 °F - 42.6 °F 77% 30.07 in 10.0 mi Calm Calm - N/A   Clear
8:15 AM 52.7 °F - 41.7 °F 66% 30.07 in 10.0 mi Calm Calm - N/A   Clear
8:35 AM 55.6 °F - 43.0 °F 63% 30.08 in 10.0 mi Calm Calm - N/A   Clear
8:55 AM 58.3 °F - 44.6 °F 60% 30.07 in 10.0 mi Calm Calm - N/A   Clear
9:15 AM 62.4 °F - 43.3 °F 50% 30.08 in 10.0 mi SSW 5.8 mph - N/A   Clear
9:35 AM 64.2 °F - 43.3 °F 47% 30.07 in 10.0 mi WSW 4.6 mph - N/A   Clear
9:55 AM 66.0 °F - 43.5 °F 44% 30.07 in 10.0 mi SSW 5.8 mph - N/A   Clear
10:15 AM 67.3 °F - 41.2 °F 39% 30.07 in 10.0 mi SW 8.1 mph - N/A   Clear
10:35 AM 69.1 °F - 39.6 °F 34% 30.07 in 10.0 mi South 6.9 mph - N/A   Clear
10:55 AM 70.5 °F - 39.6 °F 32% 30.06 in 10.0 mi SSW 8.1 mph - N/A   Clear
11:15 AM 71.6 °F - 38.5 °F 30% 30.06 in 10.0 mi South 5.8 mph - N/A   Clear
11:35 AM 72.7 °F - 39.4 °F 30% 30.05 in 10.0 mi SSW 5.8 mph - N/A   Clear
11:55 AM 74.3 °F - 40.6 °F 30% 30.04 in 10.0 mi SW 4.6 mph - N/A   Clear
12:15 PM 75.0 °F - 40.1 °F 28% 30.03 in 10.0 mi West 9.2 mph - N/A   Clear
12:35 PM 75.7 °F - 41.0 °F 29% 30.02 in 10.0 mi WSW 10.4 mph - N/A   Clear
12:55 PM 76.3 °F - 41.7 °F 29% 30.01 in 10.0 mi West 6.9 mph - N/A   Clear
1:35 PM 77.4 °F - 40.1 °F 26% 30.00 in 10.0 mi West 8.1 mph - N/A   Clear
1:55 PM 78.1 °F - 37.8 °F 23% 29.99 in 10.0 mi West 4.6 mph - N/A   Clear
2:15 PM 78.3 °F - 41.7 °F 27% 29.99 in 10.0 mi SSW 5.8 mph - N/A   Clear
2:35 PM 78.4 °F - 38.8 °F 24% 29.98 in 10.0 mi Calm Calm - N/A   Clear
2:55 PM 79.3 °F - 38.3 °F 23% 29.98 in 10.0 mi Calm Calm - N/A   Clear
3:15 PM 79.9 °F - 36.9 °F 21% 29.96 in 10.0 mi SSW 4.6 mph - N/A   Clear
3:35 PM 80.1 °F - 36.9 °F 21% 29.96 in 10.0 mi SSW 4.6 mph - N/A   Clear
3:55 PM 80.1 °F - 41.4 °F 25% 29.95 in 10.0 mi South 6.9 mph - N/A   Clear
4:15 PM 80.1 °F - 39.4 °F 23% 29.95 in 10.0 mi SSW 6.9 mph - N/A   Clear
4:35 PM 80.6 °F - 39.4 °F 23% 29.95 in 10.0 mi SSW 5.8 mph - N/A   Scattered Clouds
4:55 PM 79.9 °F - 40.1 °F 24% 29.95 in 10.0 mi SSW 4.6 mph - N/A   Clear
5:15 PM 79.3 °F - 38.7 °F 23% 29.94 in 10.0 mi SSE 3.5 mph - N/A   Clear
5:35 PM 78.6 °F - 39.9 °F 25% 29.95 in 10.0 mi Calm Calm - N/A   Clear
6:15 PM 77.7 °F - 40.8 °F 27% 29.95 in 10.0 mi South 5.8 mph - N/A   Clear
6:35 PM 77.2 °F - 42.8 °F 29% 29.95 in 10.0 mi South 5.8 mph - N/A   Clear
6:55 PM 77.0 °F - 43.5 °F 30% 29.95 in 10.0 mi SSW 6.9 mph - N/A   Clear
7:15 PM 75.2 °F - 44.1 °F 33% 29.95 in 10.0 mi SSW 6.9 mph - N/A   Clear
7:35 PM 74.5 °F - 43.9 °F 33% 29.96 in 10.0 mi South 6.9 mph - N/A   Clear
7:55 PM 73.4 °F - 43.9 °F 35% 29.96 in 10.0 mi South 6.9 mph - N/A   Clear
8:15 PM 72.3 °F - 44.4 °F 37% 29.96 in 10.0 mi SSW 4.6 mph - N/A   Clear
8:35 PM 71.6 °F - 44.6 °F 38% 29.98 in 10.0 mi SSW 6.9 mph - N/A   Clear
8:55 PM 68.7 °F - 45.9 °F 44% 29.99 in 10.0 mi SSW 5.8 mph - N/A   Clear
9:15 PM 68.4 °F - 45.5 °F 44% 29.99 in 10.0 mi SW 6.9 mph - N/A   Clear
9:35 PM 68.7 °F - 45.3 °F 43% 30.00 in 10.0 mi SSW 4.6 mph - N/A   Clear
9:55 PM 67.3 °F - 45.9 °F 46% 29.99 in 10.0 mi Calm Calm - N/A   Clear
10:15 PM 66.7 °F - 45.7 °F 47% 30.00 in 10.0 mi East 3.5 mph - N/A   Clear
10:35 PM 66.9 °F - 45.1 °F 45% 30.00 in 10.0 mi ENE 3.5 mph - N/A   Clear
10:55 PM 66.2 °F - 46.0 °F 48% 30.01 in 10.0 mi NE 4.6 mph - N/A   Clear
11:15 PM 64.6 °F - 46.6 °F 52% 30.01 in 10.0 mi East 5.8 mph - N/A   Clear
11:35 PM 64.2 °F - 46.9 °F 53% 30.01 in 10.0 mi East 8.1 mph - N/A   Clear
11:55 PM 63.9 °F - 47.3 °F 55% 30.01 in 10.0 mi East 6.9 mph - N/A   Clear